| time (UTC) | temp F | wind direction | speed MPH | gust MPH | rain 1hr in | rain 24hr in | rain mn in | humidity % | barometer mb |
| 20260505080134 | 63 | 227 | 5.0 | 10.0 | 0.00 | 0.00 | 0.00 | 58 | 1009.1 |
| 20260505075631 | 62 | 200 | 5.0 | 10.0 | 0.00 | 0.00 | 0.00 | 58 | 1009.4 |
| 20260505075127 | 62 | 242 | 5.0 | 7.0 | 0.00 | 0.00 | 0.00 | 58 | 1009.0 |
| 20260505074624 | 62 | 192 | 6.0 | 10.0 | 0.00 | 0.00 | 0.00 | 57 | 1009.1 |
| 20260505074121 | 63 | 204 | 4.0 | 10.0 | 0.00 | 0.00 | 0.00 | 57 | 1009.2 |
| 20260505073619 | 63 | 234 | 6.0 | 9.0 | 0.00 | 0.00 | 0.00 | 57 | 1009.1 |
| 20260505073117 | 62 | 238 | 4.0 | 9.0 | 0.00 | 0.00 | 0.00 | 56 | 1009.2 |
| 20260505072612 | 63 | 192 | 4.0 | 10.0 | 0.00 | 0.00 | 0.00 | 57 | 1008.8 |
| 20260505072109 | 63 | 253 | 4.0 | 9.0 | 0.00 | 0.00 | 0.00 | 56 | 1008.7 |
| 20260505071604 | 63 | 200 | 5.0 | 10.0 | 0.00 | 0.00 | 0.00 | 56 | 1008.7 |
| 20260505071103 | 63 | 216 | 6.0 | 9.0 | 0.00 | 0.00 | 0.00 | 55 | 1008.8 |
| 20260505070600 | 63 | 225 | 5.0 | 11.0 | 0.00 | 0.00 | 0.00 | 56 | 1008.6 |
| 20260505070056 | 63 | 220 | 7.0 | 10.0 | 0.00 | 0.00 | 0.00 | 56 | 1008.6 |
| 20260505065552 | 63 | 234 | 9.0 | 11.0 | 0.00 | 0.00 | 0.00 | 56 | 1008.4 |
| 20260505065049 | 62 | 202 | 9.0 | 13.0 | 0.00 | 0.00 | 0.00 | 56 | 1008.7 |
| 20260505064545 | 63 | 214 | 4.0 | 13.0 | 0.00 | 0.00 | 0.00 | 56 | 1008.5 |
| 20260505064044 | 63 | 158 | 4.0 | 11.0 | 0.00 | 0.00 | 0.00 | 55 | 1009.0 |
| 20260505063541 | 63 | 220 | 7.0 | 9.0 | 0.00 | 0.00 | 0.00 | 56 | 1008.5 |
| 20260505063037 | 63 | 207 | 11.0 | 16.0 | 0.00 | 0.00 | 0.00 | 55 | 1008.8 |
| 20260505062533 | 63 | 222 | 9.0 | 10.0 | 0.00 | 0.00 | 0.00 | 55 | 1008.8 |
| 20260505062031 | 63 | 308 | 3.0 | 8.0 | 0.00 | 0.00 | 0.00 | 55 | 1008.7 |
| 20260505061528 | 63 | 204 | 4.0 | 11.0 | 0.00 | 0.00 | 0.00 | 55 | 1008.6 |
| 20260505061026 | 63 | 198 | 3.0 | 16.0 | 0.00 | 0.00 | 0.00 | 55 | 1009.0 |
| 20260505060523 | 63 | 199 | 6.0 | 17.0 | 0.00 | 0.00 | 0.00 | 55 | 1008.6 |
| 20260505060020 | 63 | 224 | 7.0 | 10.0 | 0.00 | 0.00 | 0.00 | 55 | 1008.7 |
| 20260505055510 | 63 | 229 | 5.0 | 10.0 | 0.00 | 0.00 | 0.00 | 55 | 1008.5 |
| 20260505055007 | 63 | 233 | 9.0 | 15.0 | 0.00 | 0.00 | 0.00 | 54 | 1008.6 |
| 20260505054504 | 63 | 234 | 5.0 | 9.0 | 0.00 | 0.00 | 0.00 | 54 | 1008.5 |
| 20260505054002 | 63 | 176 | 6.0 | 15.0 | 0.00 | 0.00 | 0.00 | 54 | 1008.8 |
| 20260505053459 | 63 | 284 | 4.0 | 8.0 | 0.00 | 0.00 | 0.00 | 54 | 1008.8 |
| 20260505052955 | 63 | 205 | 12.0 | 16.0 | 0.00 | 0.00 | 0.00 | 54 | 1008.5 |
| 20260505052453 | 63 | 252 | 5.0 | 10.0 | 0.00 | 0.00 | 0.00 | 54 | 1008.7 |
| 20260505051950 | 63 | 248 | 12.0 | 17.0 | 0.00 | 0.00 | 0.00 | 54 | 1008.7 |
| 20260505051447 | 63 | 215 | 8.0 | 13.0 | 0.00 | 0.00 | 0.00 | 54 | 1008.6 |
| 20260505050945 | 63 | 218 | 4.0 | 10.0 | 0.00 | 0.00 | 0.00 | 54 | 1008.8 |
| 20260505050443 | 63 | 221 | 10.0 | 16.0 | 0.00 | 0.00 | 0.00 | 54 | 1008.7 |
| 20260505041411 | 63 | 246 | 5.0 | 8.0 | 0.00 | 0.00 | 0.00 | 53 | 1009.5 |
| 20260505040908 | 63 | 197 | 4.0 | 8.0 | 0.00 | 0.00 | 0.00 | 54 | 1009.2 |
| 20260505040405 | 62 | 191 | 3.0 | 3.0 | 0.00 | 0.00 | 0.00 | 55 | 1009.3 |
| 20260505035901 | 62 | 211 | 2.0 | 2.0 | 0.00 | 0.00 | 0.00 | 54 | 1009.2 |
| 20260505035358 | 62 | 189 | 1.0 | 2.0 | 0.00 | 0.00 | 0.00 | 54 | 1009.2 |
| 20260505034855 | 63 | 287 | 3.0 | 3.0 | 0.00 | 0.00 | 0.00 | 53 | 1009.1 |
| 20260505034352 | 63 | 210 | 2.0 | 7.0 | 0.00 | 0.00 | 0.00 | 53 | 1009.0 |
| 20260505033849 | 63 | 231 | 4.0 | 8.0 | 0.00 | 0.00 | 0.00 | 52 | 1008.8 |
| 20260505033345 | 63 | 187 | 7.0 | 11.0 | 0.00 | 0.00 | 0.00 | 51 | 1008.8 |
| 20260505032844 | 63 | 223 | 4.0 | 9.0 | 0.00 | 0.00 | 0.00 | 52 | 1009.1 |
| 20260505032340 | 64 | 184 | 5.0 | 7.0 | 0.00 | 0.00 | 0.00 | 51 | 1008.7 |
| 20260505031837 | 64 | 227 | 4.0 | 8.0 | 0.00 | 0.00 | 0.00 | 51 | 1009.1 |
| 20260505031333 | 64 | 144 | 5.0 | 7.0 | 0.00 | 0.00 | 0.00 | 51 | 1009.1 |
| 20260505030831 | 64 | 237 | 3.0 | 7.0 | 0.00 | 0.00 | 0.00 | 51 | 1009.1 |
| 20260505030327 | 63 | 215 | 6.0 | 8.0 | 0.00 | 0.00 | 0.00 | 51 | 1008.8 |
| 20260505025822 | 63 | 196 | 5.0 | 8.0 | 0.00 | 0.00 | 0.00 | 51 | 1009.2 |
| 20260505025320 | 63 | 241 | 3.0 | 6.0 | 0.00 | 0.00 | 0.00 | 51 | 1009.1 |
| 20260505024818 | 62 | 199 | 6.0 | 9.0 | 0.00 | 0.00 | 0.00 | 51 | 1009.1 |
| 20260505024315 | 62 | 179 | 1.0 | 3.0 | 0.00 | 0.00 | 0.00 | 52 | 1009.2 |
| 20260505023812 | 62 | 79 | 1.0 | 3.0 | 0.00 | 0.00 | 0.00 | 53 | 1009.3 |
| 20260505023309 | 62 | 234 | 1.0 | 3.0 | 0.00 | 0.00 | 0.00 | 53 | 1009.1 |
| 20260505022807 | 62 | 160 | 3.0 | 5.0 | 0.00 | 0.00 | 0.00 | 53 | 1009.1 |
| 20260505022304 | 62 | 260 | 1.0 | 3.0 | 0.00 | 0.00 | 0.00 | 52 | 1009.2 |
| 20260505021801 | 63 | 176 | 1.0 | 2.0 | 0.00 | 0.00 | 0.00 | 52 | 1009.2 |
| 20260505021258 | 62 | 176 | 2.0 | 8.0 | 0.00 | 0.00 | 0.00 | 51 | 1009.4 |
| 20260505020753 | 62 | 188 | 3.0 | 3.0 | 0.00 | 0.00 | 0.00 | 52 | 1009.2 |
| 20260505020254 | 62 | 174 | 3.0 | 5.0 | 0.00 | 0.00 | 0.00 | 52 | 1009.3 |
| 20260505015751 | 62 | 218 | 1.0 | 3.0 | 0.00 | 0.00 | 0.00 | 52 | 1009.4 |
| 20260505015248 | 63 | 182 | 1.0 | 5.0 | 0.00 | 0.00 | 0.00 | 52 | 1009.4 |
| 20260505014745 | 63 | 162 | 3.0 | 5.0 | 0.00 | 0.00 | 0.00 | 51 | 1009.4 |
| 20260505014243 | 62 | 182 | 3.0 | 5.0 | 0.00 | 0.00 | 0.00 | 51 | 1009.3 |
| 20260505013739 | 62 | 149 | 2.0 | 5.0 | 0.00 | 0.00 | 0.00 | 51 | 1009.3 |
| 20260505013236 | 62 | 230 | 2.0 | 2.0 | 0.00 | 0.00 | 0.00 | 53 | 1009.5 |
| 20260505012734 | 62 | 156 | 1.0 | 2.0 | 0.00 | 0.00 | 0.00 | 52 | 1009.4 |
| 20260505012231 | 62 | 158 | 2.0 | 2.0 | 0.00 | 0.00 | 0.00 | 51 | 1009.3 |
| 20260505011727 | 63 | 127 | 2.0 | 2.0 | 0.00 | 0.00 | 0.00 | 50 | 1009.4 |
| 20260505011225 | 63 | 166 | 1.0 | 3.0 | 0.00 | 0.00 | 0.00 | 50 | 1009.4 |
| 20260505010720 | 62 | 192 | 1.0 | 2.0 | 0.00 | 0.00 | 0.00 | 51 | 1009.1 |
| 20260505010217 | 63 | 154 | 2.0 | 3.0 | 0.00 | 0.00 | 0.00 | 51 | 1009.1 |
| 20260505005713 | 62 | 189 | 1.0 | 2.0 | 0.00 | 0.00 | 0.00 | 51 | 1009.2 |
| 20260505005210 | 63 | 168 | 2.0 | 3.0 | 0.00 | 0.00 | 0.00 | 50 | 1009.1 |
| 20260505004707 | 62 | 203 | 1.0 | 2.0 | 0.00 | 0.00 | 0.00 | 51 | 1009.1 |
| 20260505004204 | 62 | 181 | 1.0 | 2.0 | 0.00 | 0.00 | 0.00 | 50 | 1009.0 |
| 20260505003701 | 62 | 196 | 3.0 | 3.0 | 0.00 | 0.00 | 0.00 | 52 | 1008.7 |
| 20260505003159 | 63 | 215 | 1.0 | 1.0 | 0.00 | 0.00 | 0.00 | 49 | 1008.5 |
| 20260505002655 | 63 | 212 | 1.0 | 2.0 | 0.00 | 0.00 | 0.00 | 51 | 1008.7 |
| 20260505002153 | 63 | 210 | 1.0 | 3.0 | 0.00 | 0.00 | 0.00 | 51 | 1008.6 |
| 20260505001649 | 63 | 154 | 2.0 | 2.0 | 0.00 | 0.00 | 0.00 | 51 | 1008.5 |
| 20260505001147 | 64 | 214 | 1.0 | 1.0 | 0.00 | 0.00 | 0.00 | 51 | 1008.4 |
| 20260505000644 | 65 | 233 | 1.0 | 2.0 | 0.00 | 0.00 | 0.00 | 48 | 1008.5 |
| 20260505000142 | 66 | 161 | 1.0 | 2.0 | 0.00 | 0.00 | 0.00 | 47 | 1008.5 |
| 20260504235638 | 66 | 189 | 2.0 | 3.0 | 0.00 | 0.00 | 0.00 | 46 | 1008.1 |
| 20260504235134 | 67 | 229 | 3.0 | 5.0 | 0.00 | 0.00 | 0.00 | 45 | 1008.6 |
| 20260504234632 | 67 | 228 | 1.0 | 2.0 | 0.00 | 0.00 | 0.00 | 45 | 1008.6 |
| 20260504234129 | 68 | 233 | 3.0 | 5.0 | 0.00 | 0.00 | 0.00 | 44 | 1008.2 |
| 20260504233625 | 68 | 260 | 1.0 | 3.0 | 0.00 | 0.00 | 0.00 | 44 | 1008.4 |
| 20260504233121 | 68 | 192 | 2.0 | 7.0 | 0.00 | 0.00 | 0.00 | 44 | 1008.3 |
| 20260504232619 | 69 | 223 | 3.0 | 5.0 | 0.00 | 0.00 | 0.00 | 42 | 1008.2 |
| 20260504232116 | 69 | 225 | 3.0 | 5.0 | 0.00 | 0.00 | 0.00 | 43 | 1008.5 |
| 20260504231612 | 70 | 250 | 1.0 | 6.0 | 0.00 | 0.00 | 0.00 | 43 | 1008.4 |
| 20260504231108 | 70 | 221 | 4.0 | 7.0 | 0.00 | 0.00 | 0.00 | 43 | 1008.3 |
| 20260504230604 | 70 | 210 | 2.0 | 8.0 | 0.00 | 0.00 | 0.00 | 42 | 1008.1 |
| 20260504230104 | 71 | 207 | 3.0 | 5.0 | 0.00 | 0.00 | 0.00 | 41 | 1008.2 |
| 20260504225601 | 71 | 216 | 4.0 | 5.0 | 0.00 | 0.00 | 0.00 | 41 | 1008.2 |
| 20260504225057 | 70 | 251 | 1.0 | 3.0 | 0.00 | 0.00 | 0.00 | 43 | 1008.2 |
| 20260504224554 | 70 | 273 | 3.0 | 7.0 | 0.00 | 0.00 | 0.00 | 42 | 1008.1 |
| 20260504224051 | 70 | 274 | 1.0 | 3.0 | 0.00 | 0.00 | 0.00 | 42 | 1008.3 |
| 20260504223548 | 70 | 240 | 2.0 | 5.0 | 0.00 | 0.00 | 0.00 | 42 | 1008.4 |
| 20260504223043 | 70 | 217 | 3.0 | 6.0 | 0.00 | 0.00 | 0.00 | 41 | 1008.1 |
| 20260504222541 | 70 | 206 | 8.0 | 9.0 | 0.00 | 0.00 | 0.00 | 41 | 1008.1 |
| 20260504222038 | 71 | 287 | 4.0 | 6.0 | 0.00 | 0.00 | 0.00 | 41 | 1008.0 |
| 20260504221535 | 71 | 246 | 4.0 | 6.0 | 0.00 | 0.00 | 0.00 | 41 | 1008.2 |
| 20260504221032 | 71 | 279 | 5.0 | 8.0 | 0.00 | 0.00 | 0.00 | 40 | 1007.9 |
| 20260504220529 | 72 | 266 | 4.0 | 5.0 | 0.00 | 0.00 | 0.00 | 39 | 1008.1 |
| 20260504220026 | 71 | 256 | 1.0 | 9.0 | 0.00 | 0.00 | 0.00 | 40 | 1008.1 |
| 20260504215522 | 72 | 229 | 7.0 | 9.0 | 0.00 | 0.00 | 0.00 | 40 | 1008.0 |
| 20260504215020 | 73 | 286 | 2.0 | 7.0 | 0.00 | 0.00 | 0.00 | 40 | 1008.2 |
| 20260504214515 | 72 | 223 | 7.0 | 10.0 | 0.00 | 0.00 | 0.00 | 39 | 1008.0 |
| 20260504214012 | 73 | 272 | 9.0 | 11.0 | 0.00 | 0.00 | 0.00 | 39 | 1008.1 |
| 20260504213508 | 73 | 218 | 3.0 | 8.0 | 0.00 | 0.00 | 0.00 | 40 | 1008.2 |
| 20260504213006 | 72 | 237 | 5.0 | 8.0 | 0.00 | 0.00 | 0.00 | 40 | 1008.4 |
| 20260504212501 | 73 | 268 | 5.0 | 13.0 | 0.00 | 0.00 | 0.00 | 40 | 1008.4 |
| 20260504211959 | 73 | 344 | 8.0 | 9.0 | 0.00 | 0.00 | 0.00 | 39 | 1008.2 |
| 20260504211455 | 73 | 330 | 5.0 | 9.0 | 0.00 | 0.00 | 0.00 | 40 | 1008.2 |
| 20260504210953 | 72 | 185 | 3.0 | 6.0 | 0.00 | 0.00 | 0.00 | 40 | 1008.1 |
| 20260504210450 | 72 | 324 | 4.0 | 7.0 | 0.00 | 0.00 | 0.00 | 41 | 1008.3 |
| 20260504205947 | 72 | 193 | 2.0 | 5.0 | 0.00 | 0.00 | 0.00 | 42 | 1008.2 |
| 20260504205444 | 73 | 297 | 4.0 | 9.0 | 0.00 | 0.00 | 0.00 | 40 | 1008.2 |
| 20260504204942 | 73 | 315 | 3.0 | 8.0 | 0.00 | 0.00 | 0.00 | 40 | 1008.4 |
| 20260504204440 | 73 | 240 | 11.0 | 14.0 | 0.00 | 0.00 | 0.00 | 40 | 1008.4 |
| 20260504203939 | 72 | 299 | 7.0 | 9.0 | 0.00 | 0.00 | 0.00 | 39 | 1008.4 |
| 20260504203436 | 72 | 223 | 4.0 | 14.0 | 0.00 | 0.00 | 0.00 | 42 | 1008.4 |
| 20260504202932 | 73 | 289 | 8.0 | 10.0 | 0.00 | 0.00 | 0.00 | 39 | 1008.6 |
| 20260504202429 | 73 | 322 | 12.0 | 13.0 | 0.00 | 0.00 | 0.00 | 38 | 1008.5 |
| 20260504201926 | 72 | 331 | 9.0 | 11.0 | 0.00 | 0.00 | 0.00 | 40 | 1008.5 |
| 20260504201423 | 71 | 261 | 5.0 | 9.0 | 0.00 | 0.00 | 0.00 | 42 | 1008.8 |
| 20260504200921 | 71 | 279 | 4.0 | 6.0 | 0.00 | 0.00 | 0.00 | 42 | 1008.6 |
| 20260504200417 | 71 | 288 | 3.0 | 9.0 | 0.00 | 0.00 | 0.00 | 44 | 1008.7 |
| 20260504195914 | 71 | 258 | 4.0 | 17.0 | 0.00 | 0.00 | 0.00 | 42 | 1008.8 |
| 20260504195409 | 69 | 227 | 3.0 | 8.0 | 0.00 | 0.00 | 0.00 | 44 | 1008.8 |
| 20260504194906 | 69 | 284 | 5.0 | 8.0 | 0.00 | 0.00 | 0.00 | 44 | 1009.0 |
| 20260504194402 | 69 | 252 | 4.0 | 10.0 | 0.00 | 0.00 | 0.00 | 44 | 1009.3 |
| 20260504193858 | 69 | 201 | 5.0 | 8.0 | 0.00 | 0.00 | 0.00 | 43 | 1009.2 |
| 20260504193355 | 70 | 227 | 3.0 | 13.0 | 0.00 | 0.00 | 0.00 | 45 | 1009.2 |
| 20260504192855 | 70 | 280 | 7.0 | 10.0 | 0.00 | 0.00 | 0.00 | 44 | 1009.1 |
| 20260504192352 | 72 | 190 | 3.0 | 8.0 | 0.00 | 0.00 | 0.00 | 43 | 1009.3 |
| 20260504191850 | 70 | 272 | 6.0 | 10.0 | 0.00 | 0.00 | 0.00 | 43 | 1009.4 |
| 20260504191348 | 70 | 262 | 3.0 | 6.0 | 0.00 | 0.00 | 0.00 | 44 | 1009.5 |
| 20260504190843 | 70 | 254 | 4.0 | 11.0 | 0.00 | 0.00 | 0.00 | 44 | 1009.5 |
| 20260504190339 | 71 | 289 | 3.0 | 11.0 | 0.00 | 0.00 | 0.00 | 44 | 1009.3 |
| 20260504185836 | 70 | 251 | 5.0 | 9.0 | 0.00 | 0.00 | 0.00 | 45 | 1009.4 |
| 20260504185333 | 70 | 326 | 5.0 | 10.0 | 0.00 | 0.00 | 0.00 | 44 | 1009.7 |
| 20260504184829 | 69 | 238 | 3.0 | 6.0 | 0.00 | 0.00 | 0.00 | 45 | 1009.7 |
| 20260504184325 | 68 | 229 | 3.0 | 7.0 | 0.00 | 0.00 | 0.00 | 46 | 1009.7 |
| 20260504183820 | 68 | 320 | 3.0 | 8.0 | 0.00 | 0.00 | 0.00 | 46 | 1009.7 |
| 20260504183318 | 68 | 320 | 3.0 | 10.0 | 0.00 | 0.00 | 0.00 | 46 | 1009.9 |
| 20260504182816 | 68 | 278 | 5.0 | 10.0 | 0.00 | 0.00 | 0.00 | 46 | 1009.9 |
| 20260504182313 | 68 | 300 | 4.0 | 8.0 | 0.00 | 0.00 | 0.00 | 45 | 1010.0 |
| 20260504181810 | 69 | 276 | 4.0 | 11.0 | 0.00 | 0.00 | 0.00 | 47 | 1009.8 |
| 20260504181307 | 68 | 326 | 5.0 | 10.0 | 0.00 | 0.00 | 0.00 | 45 | 1010.0 |
| 20260504180806 | 68 | 264 | 4.0 | 10.0 | 0.00 | 0.00 | 0.00 | 46 | 1009.9 |
| 20260504180304 | 68 | 257 | 6.0 | 11.0 | 0.00 | 0.00 | 0.00 | 46 | 1009.9 |
| 20260504175802 | 68 | 320 | 15.0 | 17.0 | 0.00 | 0.00 | 0.00 | 45 | 1010.0 |
| 20260504175258 | 69 | 322 | 8.0 | 13.0 | 0.00 | 0.00 | 0.00 | 45 | 1009.9 |
| 20260504174757 | 68 | 296 | 12.0 | 16.0 | 0.00 | 0.00 | 0.00 | 45 | 1010.0 |
| 20260504174254 | 68 | 238 | 5.0 | 10.0 | 0.00 | 0.00 | 0.00 | 46 | 1009.9 |
| 20260504173750 | 66 | 230 | 8.0 | 10.0 | 0.00 | 0.00 | 0.00 | 47 | 1010.4 |
| 20260504173248 | 67 | 291 | 8.0 | 16.0 | 0.00 | 0.00 | 0.00 | 46 | 1009.8 |
| 20260504172744 | 68 | 300 | 7.0 | 14.0 | 0.00 | 0.00 | 0.00 | 46 | 1010.1 |
| 20260504172241 | 67 | 280 | 7.0 | 11.0 | 0.00 | 0.00 | 0.00 | 48 | 1010.1 |
| 20260504171737 | 68 | 310 | 6.0 | 15.0 | 0.00 | 0.00 | 0.00 | 47 | 1010.1 |
| 20260504171234 | 67 | 296 | 3.0 | 8.0 | 0.00 | 0.00 | 0.00 | 47 | 1010.1 |
| 20260504170731 | 66 | 208 | 5.0 | 7.0 | 0.00 | 0.00 | 0.00 | 47 | 1010.1 |
| 20260504170229 | 66 | 309 | 4.0 | 6.0 | 0.00 | 0.00 | 0.00 | 48 | 1010.3 |
| 20260504160147 | 63 | 239 | 7.0 | 11.0 | 0.00 | 0.00 | 0.00 | 49 | 1011.1 |
| 20260504151114 | 59 | 209 | 5.0 | 15.0 | 0.00 | 0.00 | 0.00 | 51 | 1011.6 |
| 20260504150612 | 59 | 292 | 5.0 | 11.0 | 0.00 | 0.00 | 0.00 | 52 | 1011.7 |
| 20260504150109 | 59 | 260 | 8.0 | 13.0 | 0.00 | 0.00 | 0.00 | 51 | 1011.9 |
| 20260504141037 | 57 | 238 | 8.0 | 10.0 | 0.00 | 0.00 | 0.00 | 53 | 1011.5 |
| 20260504140534 | 57 | 246 | 4.0 | 14.0 | 0.00 | 0.00 | 0.00 | 53 | 1011.7 |
| 20260504130458 | 55 | 235 | 5.0 | 9.0 | 0.00 | 0.00 | 0.00 | 55 | 1011.9 |
| 20260504110345 | 51 | 326 | 4.0 | 7.0 | 0.00 | 0.00 | 0.00 | 61 | 1012.1 |
| 20260504100303 | 41 | 245 | 0.0 | 1.0 | 0.00 | 0.00 | 0.00 | 82 | 1012.1 |
| 20260504081656 | 42 | 26 | 0.0 | 0.0 | 0.00 | 0.00 | 0.00 | 87 | 1012.7 |
| 20260504081152 | 42 | 45 | 0.0 | 1.0 | 0.00 | 0.00 | 0.00 | 88 | 1012.3 |
| 20260504080649 | 42 | 80 | 2.0 | 3.0 | 0.00 | 0.00 | 0.00 | 88 | 1012.5 |